Weather History for Ft. Stewart, GA

Change the Weather History Date:

Monday, April 28, 2014

  Actual Average Record
Temperature  
Mean Temperature 76 °F -  
Max Temperature 88 °F 82 °F 93 °F (1986)
Min Temperature 66 °F 56 °F 42 °F (1977)
Cooling Degree Days 12    
Growing Degree Days 26 (Base 50)    
Moisture  
Dew Point 70 °F    
Average Humidity 81    
Maximum Humidity 100    
Minimum Humidity 53    
Precipitation  
Precipitation 0.00 in - - ()
Sea Level Pressure  
Sea Level Pressure 29.92 in    
Wind  
Wind Speed 4 mph (South)    
Max Wind Speed 14 mph    
Max Gust Speed 18 mph    
Visibility 10 miles    
Events      
Averages and records for this station are not official NWS values.
T = Trace of Precipitation, MM = Missing Value Source: NWS Daily Summary

Daily Weather History Graph

Daily Weather History Graph

Search for Another Location

Airport:

Trip Planner

Search our weather history database for the weather conditions in past years. The results will help you decide how hot, cold, wet, or windy it might be!

Date:

Astronomy

Apr. 28, 2014 Rise Set
Actual Time 6:43 AM EDT 8:04 PM EDT
Civil Twilight 6:17 AM EDT 8:30 PM EDT
Nautical Twilight 5:46 AM EDT 9:01 PM EDT
Astronomical Twilight 5:15 AM EDT 9:33 PM EDT
Moon 6:17 AM EDT (4/28) 7:42 PM EDT (4/28)
Length of Visible Light 14h 12m
Length of Day
13h 21m
Waning Crescent, 0% of the Moon is Illuminated
Apr 28
Waning Crescent
Apr 29
New
May 6
First Quarter
May 14
Full
May 21
Last Quarter

Hourly Weather History & Observations

Time (EDT) Temp. Heat Index Dew Point Humidity Pressure Visibility Wind Dir Wind Speed Gust Speed Precip Events Conditions
12:58 AM 68.9 °F - 68.9 °F 100% 29.97 in 10.0 mi Calm Calm - N/A   Mostly Cloudy
1:58 AM 68.2 °F - 68.2 °F 100% 29.96 in 10.0 mi ESE 2.3 mph - N/A   Overcast
2:58 AM 68.9 °F - 68.9 °F 100% 29.93 in 10.0 mi SE 3.5 mph - N/A   Scattered Clouds
3:58 AM 69.6 °F - 69.6 °F 100% 29.93 in 10.0 mi SE 2.3 mph - N/A   Clear
4:58 AM 68.7 °F - 68.7 °F 100% 29.93 in 10.0 mi Variable 2.3 mph - N/A   Mostly Cloudy
5:58 AM 67.3 °F - 67.3 °F 100% 29.93 in 10.0 mi Calm Calm - N/A   Scattered Clouds
6:58 AM 66.9 °F - 66.9 °F 100% 29.93 in 10.0 mi Calm Calm - N/A   Clear
7:58 AM 69.8 °F - 69.8 °F 100% 29.94 in 10.0 mi South 5.8 mph - N/A   Clear
8:58 AM 72.9 °F - 72.9 °F 100% 29.94 in 10.0 mi South 8.1 mph - N/A   Clear
9:58 AM 78.3 °F - 72.5 °F 82% 29.95 in 10.0 mi Variable 4.6 mph - N/A   Scattered Clouds
10:58 AM 81.3 °F 84.8 °F 70.0 °F 68% 29.95 in 10.0 mi SW 9.2 mph - N/A   Scattered Clouds
11:58 AM 83.1 °F 87.8 °F 71.2 °F 67% 29.96 in 10.0 mi SW 10.4 mph - N/A   Mostly Cloudy
12:58 PM 85.6 °F 90.4 °F 70.5 °F 60% 29.94 in 10.0 mi SSW 10.4 mph - N/A   Overcast
1:58 PM 87.4 °F 91.2 °F 68.5 °F 53% 29.93 in 10.0 mi SW 13.8 mph 18.4 mph N/A   Overcast
2:58 PM 86.5 °F 90.0 °F 68.2 °F 54% 29.93 in 10.0 mi WSW 10.4 mph - N/A   Mostly Cloudy
3:58 PM 87.1 °F 91.6 °F 69.6 °F 56% 29.91 in 10.0 mi Variable 4.6 mph - N/A   Mostly Cloudy
4:59 PM 87.6 °F 92.3 °F 69.8 °F 55% 29.89 in 10.0 mi SW 6.9 mph - N/A   Mostly Cloudy
5:59 PM 87.3 °F 92.0 °F 70.0 °F 56% 29.88 in 10.0 mi SSW 5.8 mph - N/A   Clear
6:58 PM 85.3 °F 90.1 °F 70.5 °F 61% 29.86 in 10.0 mi ESE 4.6 mph - N/A   Clear
7:58 PM 79.7 °F - 72.7 °F 79% 29.85 in 10.0 mi SE 6.9 mph - N/A   Clear
8:58 PM 76.6 °F - 72.1 °F 86% 29.88 in 10.0 mi SSE 4.6 mph - N/A   Clear
9:01 PM 77.0 °F - 71.6 °F 83% 29.87 in 10.0 mi SSE 4.6 mph - N/A   Clear
9:58 PM 74.5 °F - 70.9 °F 88% 29.89 in 10.0 mi SE 5.8 mph - 0.00 in   Scattered Clouds
10:58 PM 73.0 °F - 70.3 °F 91% 29.90 in 10.0 mi SSE 2.3 mph - N/A   Clear
11:58 PM 71.1 °F - 69.8 °F 96% 29.90 in 10.0 mi SE 4.6 mph - N/A   Clear